TimeEDT,TemperatureF,Dew PointF,Humidity,Sea Level PressureIn,VisibilityMPH,Wind Direction,Wind SpeedMPH,Gust SpeedMPH,PrecipitationIn,Events,Conditions,WindDirDegrees,DateUTC
12:15 AM,63.7,63.7,100,30.09,1.5,Calm,Calm,-,N/A,,Mostly Cloudy,0,2013-10-05 04:15:00
12:35 AM,64.0,64.0,100,30.09,1.8,South,3.5,-,N/A,,Mostly Cloudy,180,2013-10-05 04:35:00
12:55 AM,63.5,63.5,100,30.08,1.5,South,3.5,-,N/A,,Mist,180,2013-10-05 04:55:00
1:15 AM,64.0,64.0,100,30.08,1.8,Calm,Calm,-,N/A,,Mist,0,2013-10-05 05:15:00
1:35 AM,64.8,64.8,100,30.07,2.5,South,3.5,-,N/A,,Clear,180,2013-10-05 05:35:00
1:55 AM,64.4,64.4,100,30.08,5.0,SSW,4.6,-,N/A,,Scattered Clouds,200,2013-10-05 05:55:00
2:15 AM,66.4,65.5,97,30.08,10.0,South,4.6,-,N/A,,Mostly Cloudy,190,2013-10-05 06:15:00
2:35 AM,67.1,65.1,93,30.08,10.0,South,4.6,-,N/A,,Scattered Clouds,190,2013-10-05 06:35:00
2:55 AM,66.7,64.8,93,30.08,10.0,South,4.6,-,N/A,,Clear,190,2013-10-05 06:55:00
3:15 AM,66.2,64.4,94,30.07,10.0,SSW,4.6,-,N/A,,Clear,200,2013-10-05 07:15:00
3:35 AM,66.2,64.4,94,30.07,10.0,SSW,5.8,-,N/A,,Scattered Clouds,200,2013-10-05 07:35:00
3:55 AM,65.7,64.4,96,30.07,7.0,SSW,3.5,-,N/A,,Scattered Clouds,200,2013-10-05 07:55:00
4:15 AM,64.8,64.4,99,30.08,5.0,SSW,3.5,-,N/A,,Mostly Cloudy,200,2013-10-05 08:15:00
4:35 AM,64.9,64.4,98,30.07,7.0,SSW,4.6,-,N/A,,Mostly Cloudy,200,2013-10-05 08:35:00
4:55 AM,65.3,64.2,96,30.07,10.0,SSW,4.6,-,N/A,,Scattered Clouds,210,2013-10-05 08:55:00
5:15 AM,65.5,64.4,96,30.07,10.0,South,4.6,-,N/A,,Clear,190,2013-10-05 09:15:00
5:35 AM,65.7,64.4,96,30.07,10.0,SSW,4.6,-,N/A,,Scattered Clouds,200,2013-10-05 09:35:00
5:55 AM,65.1,64.0,96,30.07,10.0,Calm,Calm,-,N/A,,Scattered Clouds,0,2013-10-05 09:55:00
6:15 AM,64.4,63.7,98,30.07,7.0,Calm,Calm,-,N/A,,Scattered Clouds,0,2013-10-05 10:15:00
6:35 AM,64.4,63.9,98,30.07,7.0,South,3.5,-,N/A,,Scattered Clouds,170,2013-10-05 10:35:00
6:55 AM,64.0,63.5,98,30.07,7.0,South,4.6,-,N/A,,Clear,170,2013-10-05 10:55:00
7:15 AM,63.9,63.5,99,30.07,7.0,SSE,4.6,-,N/A,,Clear,160,2013-10-05 11:15:00
7:22 AM,64.4,64.4,100,30.07,7.0,South,3.5,-,N/A,,Clear,170,2013-10-05 11:22:00
7:52 AM,64.4,64.4,100,30.08,7.0,South,3.5,-,N/A,,Mostly Cloudy,170,2013-10-05 11:52:00
8:50 AM,66.2,64.4,94,30.08,7.0,Calm,Calm,-,N/A,,Mostly Cloudy,0,2013-10-05 12:50:00
9:50 AM,71.6,66.2,83,30.08,7.0,South,8.1,-,N/A,,Overcast,180,2013-10-05 13:50:00
10:50 AM,73.4,68.0,83,30.07,7.0,South,5.8,-,N/A,,Scattered Clouds,190,2013-10-05 14:50:00
11:50 AM,73.4,69.8,88,30.06,10.0,South,5.8,-,N/A,,Overcast,180,2013-10-05 15:50:00
12:58 PM,80.6,69.8,70,30.04,10.0,South,9.2,-,N/A,,Overcast,190,2013-10-05 16:58:00
1:50 PM,80.6,69.8,70,30.02,10.0,WSW,16.1,23.0,N/A,,Overcast,240,2013-10-05 17:50:00
7:35 PM,73.6,68.0,83,29.99,10.0,SSW,6.9,-,N/A,,Clear,200,2013-10-05 23:35:00
7:55 PM,73.4,68.2,84,29.99,10.0,SSW,5.8,-,N/A,,Clear,200,2013-10-05 23:55:00
8:15 PM,72.5,68.0,86,29.99,10.0,SSW,3.5,-,N/A,,Clear,210,2013-10-06 00:15:00
8:35 PM,71.1,67.6,89,29.99,10.0,SW,4.6,-,N/A,,Clear,230,2013-10-06 00:35:00
8:55 PM,70.3,67.6,91,29.99,10.0,SW,4.6,-,N/A,,Clear,220,2013-10-06 00:55:00
9:15 PM,69.8,67.6,93,29.99,10.0,SW,4.6,-,N/A,,Clear,220,2013-10-06 01:15:00
9:35 PM,69.1,67.3,94,30.00,10.0,WSW,5.8,-,N/A,,Scattered Clouds,240,2013-10-06 01:35:00
9:55 PM,70.0,68.0,93,30.01,10.0,WSW,4.6,-,N/A,,Mostly Cloudy,240,2013-10-06 01:55:00
10:15 PM,69.8,68.0,94,30.00,10.0,SW,4.6,-,N/A,,Scattered Clouds,220,2013-10-06 02:15:00
10:35 PM,69.8,68.0,94,29.99,10.0,SSW,4.6,-,N/A,,Scattered Clouds,210,2013-10-06 02:35:00
10:55 PM,69.6,68.0,95,29.98,10.0,SSW,4.6,-,N/A,Rain,Light Rain,200,2013-10-06 02:55:00
11:15 PM,69.3,68.0,96,29.97,10.0,South,6.9,-,N/A,Rain,Light Rain,180,2013-10-06 03:15:00
11:35 PM,68.9,68.2,98,29.97,7.0,South,5.8,-,N/A,Rain,Rain,180,2013-10-06 03:35:00
11:55 PM,68.9,68.4,98,29.97,7.0,South,6.9,-,0.02,Rain,Rain,180,2013-10-06 03:55:00